Date String (YYYY-MM-DD hh:mm:ss) UTC,Instrument flags,Ambient pressure (hPa),Sample flow (lpm),Bypass flow (lpm),Sample temperature (°C),Ambient temperature (°C),ASC tube jacket temperature (°C),LED temperature (°C),Box temperature (°C),Sample RH (%),Span deviation,Mass concentration (μg/m³),Mass concentration (μg/m³),Mass concentration (μg/m³)
DateTimeUTC,F1_M11,P_M11,Q1_M11,Q2_M11,T1_M11,T2_M11,T3_M11,T4_M11,T5_M11,U1_M11,ZSPAN_M11,X0_M11,X2_M11,X1_M11
2022-09-14 18:00:00,,0823.4,5.01,0.00,30.1,28.8,00.0,38.7,32.0,21.7,0000.7,0016.26,0007.00,0005.99
2022-09-14 18:01:00,,0823.4,4.99,0.00,30.1,28.9,00.0,38.8,32.0,21.9,0001.2,0017.00,0007.03,0006.01
2022-09-14 18:02:00,,0823.4,4.99,0.00,30.1,29.0,00.0,38.8,32.0,21.1,0001.4,0017.70,0007.02,0006.01
2022-09-14 18:03:00,,0823.4,5.01,0.00,30.2,29.1,00.0,38.8,32.1,21.2,0001.3,0017.50,0007.04,0006.01
2022-09-14 18:04:00,,0823.4,4.99,0.00,30.2,29.0,00.0,38.8,32.1,20.9,0000.9,0017.30,0007.07,0006.01
2022-09-14 18:05:00,,0823.4,5.00,0.00,30.2,27.8,00.0,38.8,32.1,21.1,0001.1,0017.83,0007.07,0006.03
2022-09-14 18:06:00,,0823.3,5.00,0.00,30.2,26.8,00.0,38.8,32.0,20.8,0000.8,0018.56,0007.11,0006.04
2022-09-14 18:07:00,,0823.3,5.00,0.00,30.1,26.9,00.0,38.7,31.9,21.1,0001.0,0018.64,0007.14,0006.05
2022-09-14 18:08:00,,0823.3,5.00,0.00,30.0,27.1,00.0,38.7,31.7,21.1,0001.1,0016.64,0007.17,0006.06
2022-09-14 18:09:00,,0823.2,5.00,0.00,30.0,27.5,00.0,38.7,31.7,21.0,0001.3,0016.54,0007.21,0006.07
2022-09-14 18:10:00,,0823.2,5.00,0.00,30.0,27.8,00.0,38.7,31.8,20.9,0001.4,0017.48,0007.22,0006.06
2022-09-14 18:11:00,,0823.2,5.00,0.00,30.0,28.1,00.0,38.7,31.7,21.3,0001.4,0017.39,0007.25,0006.05
2022-09-14 18:12:00,,0823.2,5.00,0.00,30.0,28.3,00.0,38.7,31.8,21.6,0001.3,0017.08,0007.26,0006.04
2022-09-14 18:13:00,,0823.3,4.99,0.00,30.0,28.4,00.0,38.7,31.8,21.3,0001.5,0016.39,0007.24,0006.03
2022-09-14 18:14:00,,0823.3,5.01,0.00,30.0,28.6,00.0,38.7,31.9,21.3,0001.7,0015.74,0007.24,0006.02
2022-09-14 18:15:00,,0823.3,5.00,0.00,30.0,28.8,00.0,38.7,32.0,20.7,0001.9,0015.46,0007.17,0006.02
2022-09-14 18:16:00,,0823.2,5.01,0.00,30.1,28.9,00.0,38.7,32.0,20.4,0002.2,0015.29,0007.17,0006.00
2022-09-14 18:17:00,,0823.2,4.99,0.00,30.1,29.0,00.0,38.7,32.0,20.7,0002.5,0014.97,0007.15,0005.99
2022-09-14 18:18:00,,0823.2,4.99,0.00,30.1,29.1,00.0,38.8,32.1,20.5,0002.6,0014.74,0007.14,0005.98
2022-09-14 18:19:00,,0823.3,4.99,0.00,30.2,29.1,00.0,38.8,32.1,20.3,0002.7,0014.85,0007.12,0005.99
2022-09-14 18:20:00,,0823.3,5.01,0.00,30.2,28.4,00.0,38.8,32.1,20.3,0002.9,0014.61,0007.08,0005.98
2022-09-14 18:21:00,,0823.2,5.01,0.00,30.2,27.0,00.0,38.8,32.0,19.8,0002.8,0014.11,0007.07,0005.97
2022-09-14 18:22:00,,0823.2,4.99,0.00,30.1,26.6,00.0,38.7,31.9,20.2,0002.8,0013.98,0007.02,0005.97
2022-09-14 18:23:00,,0823.2,5.00,0.00,30.1,26.9,00.0,38.7,31.8,20.3,0002.7,0013.72,0006.98,0005.97
2022-09-14 18:24:00,,0823.2,5.00,0.00,30.0,27.2,00.0,38.7,31.7,20.3,0002.5,0014.44,0006.98,0005.97
2022-09-14 18:25:00,,0823.1,5.00,0.00,30.0,27.6,00.0,38.7,31.7,20.6,0002.2,0014.69,0006.94,0005.95
2022-09-14 18:26:00,,0823.2,5.00,0.00,30.0,27.9,00.0,38.7,31.7,20.7,0002.6,0014.44,0006.90,0005.93
2022-09-14 18:27:00,,0823.2,5.00,0.00,30.0,28.2,00.0,38.7,31.7,20.5,0002.5,0014.05,0006.86,0005.91
2022-09-14 18:28:00,,0823.1,5.00,0.00,30.0,28.4,00.0,38.7,31.8,20.3,0002.1,0013.57,0006.76,0005.88
2022-09-14 18:29:00,,0823.2,4.99,0.00,30.0,28.6,00.0,38.7,31.9,20.2,0001.7,0013.48,0006.71,0005.84
2022-09-14 18:30:00,,0823.1,5.01,0.00,30.0,28.7,00.0,38.7,31.9,20.4,0001.2,0013.33,0006.67,0005.79
2022-09-14 18:31:00,,0823.2,5.00,0.00,30.0,28.8,00.0,38.7,31.9,20.2,0001.1,0012.83,0006.64,0005.76
2022-09-14 18:32:00,,0823.2,5.00,0.00,30.1,28.9,00.0,38.7,32.0,20.1,0001.2,0012.52,0006.61,0005.73
2022-09-14 18:33:00,,0823.1,4.99,0.00,30.1,29.0,00.0,38.7,32.0,20.2,0001.7,0012.57,0006.60,0005.70
2022-09-14 18:34:00,,0823.1,5.02,0.00,30.1,29.1,00.0,38.8,32.0,20.3,0001.4,0012.26,0006.61,0005.68
2022-09-14 18:35:00,,0823.1,4.99,0.00,30.2,29.1,00.0,38.8,32.1,20.6,0001.5,0011.67,0006.61,0005.64
2022-09-14 18:36:00,,0823.2,5.00,0.00,30.2,29.0,00.0,38.8,32.1,21.1,0001.5,0012.12,0006.57,0005.62
2022-09-14 18:37:00,,0823.1,5.01,0.00,30.2,27.7,00.0,38.8,32.1,20.8,0000.9,0013.10,0006.56,0005.61
2022-09-14 18:38:00,,0823.2,5.01,0.00,30.2,26.7,00.0,38.8,31.9,20.9,0000.8,0013.67,0006.57,0005.59
2022-09-14 18:39:00,,0823.1,5.00,0.00,30.1,26.8,00.0,38.7,31.9,21.2,0001.0,0014.42,0006.58,0005.58
2022-09-14 18:40:00,,0823.1,5.01,0.00,30.0,27.0,00.0,38.7,31.7,21.5,0001.2,0014.59,0006.56,0005.58
2022-09-14 18:41:00,,0823.1,4.99,0.00,30.0,27.4,00.0,38.7,31.7,21.5,0002.2,0014.42,0006.54,0005.57
2022-09-14 18:42:00,,0823.1,5.00,0.00,30.0,27.7,00.0,38.7,31.7,21.2,0002.6,0014.39,0006.51,0005.55
2022-09-14 18:43:00,,0823.1,5.00,0.00,30.0,28.0,00.0,38.7,31.8,21.3,0002.0,0014.87,0006.48,0005.54
2022-09-14 18:44:00,,0823.1,5.00,0.00,30.0,28.2,00.0,38.7,31.8,21.6,0001.7,0014.99,0006.45,0005.52
2022-09-14 18:45:00,,0823.1,4.99,0.00,30.0,28.4,00.0,38.7,31.8,21.2,0002.2,0014.86,0006.41,0005.52
2022-09-14 18:46:00,,0823.1,5.00,0.00,30.0,28.6,00.0,38.7,31.9,21.3,0002.7,0014.97,0006.36,0005.51
2022-09-14 18:47:00,,0823.1,5.00,0.00,30.0,28.7,00.0,38.7,31.9,21.2,0003.2,0014.63,0006.36,0005.51
2022-09-14 18:48:00,,0823.1,5.00,0.00,30.0,28.8,00.0,38.7,31.9,21.6,0003.5,0013.74,0006.34,0005.50
2022-09-14 18:49:00,,0823.1,5.00,0.00,30.1,28.9,00.0,38.7,32.0,21.2,0003.5,0012.94,0006.29,0005.49
2022-09-14 18:50:00,,0823.1,4.99,0.00,30.1,29.0,00.0,38.7,32.0,21.2,0003.4,0012.37,0006.27,0005.50
2022-09-14 18:51:00,,0823.1,4.99,0.00,30.1,29.1,00.0,38.8,32.1,20.9,0003.3,0012.31,0006.27,0005.51
2022-09-14 18:52:00,,0823.1,5.00,0.00,30.2,28.4,00.0,38.8,32.1,20.8,0003.2,0012.89,0006.25,0005.51
2022-09-14 18:53:00,,0823.0,5.01,0.00,30.1,27.0,00.0,38.8,31.9,20.4,0002.8,0013.29,0006.26,0005.52
2022-09-14 18:54:00,,0823.1,5.00,0.00,30.1,26.6,00.0,38.7,31.8,20.9,0003.0,0013.17,0006.27,0005.53
2022-09-14 18:55:00,,0823.0,5.00,0.00,30.0,26.8,00.0,38.7,31.7,20.7,0003.0,0012.97,0006.27,0005.54
2022-09-14 18:56:00,,0823.0,5.00,0.00,29.9,27.1,00.0,38.7,31.6,21.1,0002.7,0012.90,0006.25,0005.53
2022-09-14 18:57:00,,0823.0,5.00,0.00,29.9,27.5,00.0,38.6,31.6,21.2,0002.3,0012.62,0006.22,0005.53
2022-09-14 18:58:00,,0823.0,4.99,0.00,29.9,27.8,00.0,38.6,31.7,21.9,0002.3,0012.08,0006.19,0005.53
2022-09-14 18:59:00,,0823.1,5.00,0.00,29.9,28.1,00.0,38.6,31.7,21.3,0002.0,0011.82,0006.19,0005.52
